Location: Casa Rossa
(45.2389°N, 12.2056°E)
Time: 04:31:39
(UTC+00:00)

USA 267 - Pass Details

Date: 14 July 2020
Orbit: 1102 x 1106 km, 123.0° (Epoch: 09 August)

Event Time Altitude Azimuth Distance (km) Brightness Sun altitude
Exits shadow 00:32:10 31° 229° (SW) 1,830 4.0 -21.0°
Maximum altitude 00:32:23 31° 233° (SW) 1,828 4.0 -21.0°
Drops below altitude 10° 00:38:03 10° 293° (WNW) 2,963 5.5 -20.6°
Sets 00:40:53 0° 304° (WNW) 3,924 6.3 -20.5°
